AKDT,Max TemperatureF,Mean TemperatureF,Min TemperatureF,Max Dew PointF,MeanDew PointF,Min DewpointF,Max Humidity, Mean Humidity, Min Humidity, Max Sea Level PressureIn, Mean Sea Level PressureIn, Min Sea Level PressureIn, Max VisibilityMiles, Mean VisibilityMiles, Min VisibilityMiles, Max Wind SpeedMPH, Mean Wind SpeedMPH, Max Gust SpeedMPH,PrecipitationIn, CloudCover, Events, WindDirDegrees
2012-9-1,55,52,48,49,48,46,90,86,77,29.68,29.59,29.54,10,8,1,8,5,,0.08,8,Rain,28
2012-9-2,60,55,50,48,44,38,89,71,46,29.76,29.72,29.64,10,10,10,13,6,26,0.00,8,Rain,187
2012-9-3,61,54,48,50,46,41,90,77,56,29.77,29.60,29.50,10,10,10,15,8,30,0.01,7,,286
2012-9-4,60,52,48,47,41,36,86,61,42,29.92,29.81,29.53,10,10,6,24,9,55,0.04,7,Rain,156
2012-9-5,60,56,52,47,41,37,83,60,44,29.86,29.67,29.56,10,9,2,21,12,40,0.15,6,Rain,172
2012-9-6,59,54,50,38,37,35,61,53,44,30.14,30.05,29.88,10,10,10,17,13,34,0.00,2,,204
2012-9-7,57,50,43,42,39,37,89,64,51,30.14,30.01,29.90,10,10,9,9,3,20,0.00,4,Rain,271
2012-9-8,60,50,41,42,39,36,89,76,48,29.90,29.82,29.71,10,9,0,8,3,,0.04,4,,23
2012-9-9,62,50,37,35,32,28,79,52,30,29.82,29.74,29.71,10,10,10,18,7,25,0.00,0,,16
2012-9-10,59,47,37,41,33,30,82,58,36,29.89,29.85,29.81,10,10,10,12,4,,0.00,0,,17
2012-9-11,55,47,39,39,36,32,86,67,54,29.88,29.83,29.75,10,10,10,10,2,,0.00,4,Rain,328
2012-9-12,52,48,44,45,42,39,90,81,69,29.76,29.68,29.63,10,9,3,8,4,,0.31,7,Rain,28
2012-9-13,57,52,46,46,44,42,89,79,59,29.84,29.81,29.78,10,10,10,6,2,,0.00,6,,325
2012-9-14,54,50,48,47,46,45,90,85,77,29.83,29.81,29.79,10,9,3,8,2,,0.06,8,Rain,98
2012-9-15,57,52,48,48,45,42,90,81,62,29.83,29.78,29.65,10,10,7,12,5,20,0.02,7,Rain,30
2012-9-16,57,52,48,47,44,33,93,79,42,29.64,29.47,29.35,10,8,2,16,8,29,0.22,7,Rain,262
2012-9-17,57,52,48,43,39,34,80,63,47,29.93,29.85,29.62,10,10,4,13,10,25,0.17,7,,193
2012-9-18,57,53,51,38,36,33,61,51,42,29.90,29.81,29.76,10,10,10,18,11,37,0.00,8,,156
2012-9-19,61,53,46,52,45,42,93,83,60,29.82,29.60,29.49,10,8,2,21,10,28,0.65,8,Rain,326
2012-9-20,59,54,50,52,49,47,96,88,70,29.72,29.68,29.63,10,8,2,12,3,23,0.28,8,Rain,322
2012-9-21,59,52,46,52,48,43,94,84,72,29.85,29.75,29.58,10,9,1,15,6,24,0.44,4,Rain,10
2012-9-22,66,58,51,49,45,39,89,65,37,29.56,29.44,29.36,10,10,10,28,7,43,0.02,5,Rain,163
2012-9-23,55,52,48,48,45,41,90,79,62,29.74,29.52,29.39,10,9,3,10,5,22,0.07,8,Rain,232
2012-9-24,54,50,46,45,43,36,89,77,55,29.96,29.89,29.78,10,10,6,10,5,18,0.00,7,Rain,346
2012-9-25,52,48,45,44,42,39,90,81,66,29.85,29.55,29.26,10,10,10,9,3,,0.00,7,Rain,317
2012-9-26,54,50,46,41,38,34,80,67,48,29.40,29.21,28.82,10,10,10,13,5,22,0.00,6,,49
2012-9-27,48,46,43,43,39,36,93,76,63,29.04,28.94,28.81,10,10,10,9,2,,0.00,6,Rain,249
2012-9-28,45,41,37,41,38,34,89,84,79,29.48,29.28,29.05,10,8,2,13,5,23,0.12,8,Rain-Snow,205
2012-9-29,46,40,34,34,32,27,93,79,51,29.90,29.67,29.48,10,8,1,10,5,,0.02,6,Rain-Snow,119
2012-9-30,48,40,33,31,30,26,89,75,42,30.09,30.01,29.92,10,10,9,8,2,,0.00,1,Snow,30